Change the Weather History Date:

Saturday, April 12, 2014

  Actual Average Record
Temperature  
Mean Temperature 48 °F -  
Max Temperature 53 °F 55 °F 82 °F (1985)
Min Temperature 42 °F 35 °F 17 °F (1992)
Degree Days  
Heating Degree Days 18    
Moisture  
Dew Point 41 °F    
Average Humidity 80    
Maximum Humidity 100    
Minimum Humidity 50    
Precipitation  
Precipitation 0.13 in - - ()
Sea Level Pressure  
Sea Level Pressure 29.76 in    
Wind  
Wind Speed 10 mph (ENE)    
Max Wind Speed 18 mph    
Max Gust Speed 22 mph    
Visibility 10 miles    
Events Rain , Thunderstorm    
Averages and records for this station are not official NWS values.
T = Trace of Precipitation, MM = Missing Value Source: NWS Daily Summary

Daily Weather History Graph

Daily Weather History Graph

Search for Another Location

Airport or City:

Trip Planner

Search our weather history database for the weather conditions in past years. The results will help you decide how hot, cold, wet, or windy it might be!

Date:

Astronomy

Apr. 12, 2014 Rise Set
Actual Time 6:33 AM CDT 7:54 PM CDT
Civil Twilight 6:03 AM CDT 8:24 PM CDT
Nautical Twilight 5:27 AM CDT 9:00 PM CDT
Astronomical Twilight 4:48 AM CDT 9:39 PM CDT
Moon 5:28 PM CDT (4/12) 5:07 AM CDT (4/12)
Length of Visible Light 14h 20m
Length of Day
13h 20m
Waxing Gibbous, 93% of the Moon is Illuminated
Apr 12
Waxing Gibbous
Apr 15
Full
Apr 22
Last Quarter
Apr 29
New
May 6
First Quarter

Hourly Weather History & Observations

Time (CDT) Temp. Windchill Dew Point Humidity Pressure Visibility Wind Dir Wind Speed Gust Speed Precip Events Conditions
12:16 AM 51.8 °F - 33.8 °F 50% 29.88 in 10.0 mi ESE 10.4 mph - N/A   Mostly Cloudy
12:37 AM 46.4 °F 41.9 °F 33.8 °F 62% 29.87 in 10.0 mi East 9.2 mph - N/A   Scattered Clouds
12:57 AM 50.0 °F - 33.8 °F 54% 29.86 in 10.0 mi ESE 8.1 mph - N/A   Scattered Clouds
1:17 AM 50.0 °F - 33.8 °F 54% 29.85 in 10.0 mi SE 8.1 mph - N/A   Scattered Clouds
1:37 AM 48.2 °F - 33.8 °F 58% 29.85 in 10.0 mi SE 9.2 mph - N/A   Scattered Clouds
1:56 AM 50.0 °F - 33.8 °F 54% 29.84 in 10.0 mi ESE 8.1 mph - N/A   Mostly Cloudy
2:17 AM 50.0 °F - 33.8 °F 54% 29.84 in 10.0 mi SE 6.9 mph - N/A   Overcast
2:37 AM 48.2 °F - 33.8 °F 58% 29.85 in 10.0 mi ENE 5.8 mph - N/A   Overcast
2:56 AM 48.2 °F - 33.8 °F 58% 29.86 in 10.0 mi NE 6.9 mph - N/A   Overcast
3:17 AM 48.2 °F - 33.8 °F 58% 29.87 in 10.0 mi NNE 6.9 mph - N/A   Overcast
3:36 AM 48.2 °F - 35.6 °F 62% 29.86 in 10.0 mi ENE 9.2 mph - N/A   Overcast
3:57 AM 46.4 °F 42.4 °F 37.4 °F 71% 29.86 in 10.0 mi East 8.1 mph - N/A   Overcast
4:16 AM 46.4 °F 41.9 °F 37.4 °F 71% 29.84 in 10.0 mi East 9.2 mph - N/A   Overcast
4:37 AM 46.4 °F 42.4 °F 37.4 °F 71% 29.85 in 10.0 mi East 8.1 mph - N/A   Overcast
4:57 AM 46.4 °F 41.9 °F 39.2 °F 76% 29.82 in 10.0 mi East 9.2 mph - N/A Rain Light Rain
5:16 AM 44.6 °F 39.2 °F 39.2 °F 81% 29.80 in 10.0 mi East 10.4 mph - N/A   Light Drizzle
5:37 AM 44.6 °F 40.7 °F 39.2 °F 81% 29.79 in 10.0 mi ENE 6.9 mph - N/A Rain Light Rain
5:57 AM 44.6 °F 41.4 °F 39.2 °F 81% 29.80 in 10.0 mi ENE 5.8 mph - N/A Rain Light Rain
6:16 AM 44.6 °F 41.4 °F 39.2 °F 81% 29.80 in 7.0 mi ENE 5.8 mph - 0.02 in Rain Heavy Rain
6:37 AM 42.8 °F 38.0 °F 39.2 °F 87% 29.78 in 10.0 mi ENE 8.1 mph - 0.04 in Rain Rain
6:57 AM 42.8 °F 39.3 °F 39.2 °F 87% 29.79 in 10.0 mi NE 5.8 mph - N/A Thunderstorm Thunderstorm
7:16 AM 42.8 °F 38.6 °F 39.2 °F 87% 29.81 in 4.0 mi ENE 6.9 mph - 0.05 in Rain , Thunderstorm Rain
7:37 AM 42.8 °F 38.0 °F 41.0 °F 93% 29.81 in 10.0 mi NE 8.1 mph - 0.08 in Rain , Thunderstorm Light Thunderstorms and Rain
7:57 AM 42.8 °F 36.2 °F 41.0 °F 93% 29.78 in 10.0 mi NE 12.7 mph - N/A Rain , Thunderstorm Heavy Thunderstorms and Rain
8:17 AM 42.8 °F 35.1 °F 41.0 °F 93% 29.78 in 10.0 mi ENE 16.1 mph 21.9 mph 0.01 in Thunderstorm Thunderstorm
8:36 AM 42.8 °F 35.1 °F 39.2 °F 87% 29.76 in 10.0 mi ENE 16.1 mph 21.9 mph 0.01 in Thunderstorm Overcast
8:57 AM 42.8 °F 35.8 °F 39.2 °F 87% 29.75 in 10.0 mi East 13.8 mph - N/A Thunderstorm Overcast
9:17 AM 42.8 °F 35.8 °F 39.2 °F 87% 29.75 in 10.0 mi ENE 13.8 mph 18.4 mph N/A   Overcast
9:36 AM 42.8 °F 36.2 °F 41.0 °F 93% 29.75 in 10.0 mi East 12.7 mph - N/A   Overcast
9:57 AM 42.8 °F 36.6 °F 41.0 °F 93% 29.74 in 10.0 mi East 11.5 mph 17.3 mph N/A   Overcast
10:17 AM 42.8 °F 36.2 °F 41.0 °F 93% 29.74 in 10.0 mi East 12.7 mph - N/A   Overcast
10:36 AM 42.8 °F 35.8 °F 42.8 °F 100% 29.74 in 10.0 mi East 13.8 mph - N/A   Overcast
10:57 AM 44.6 °F 37.8 °F 42.8 °F 93% 29.73 in 10.0 mi East 15.0 mph - N/A   Mostly Cloudy
11:16 AM 46.4 °F 39.2 °F 42.8 °F 87% 29.73 in 10.0 mi East 18.4 mph - N/A   Mostly Cloudy
11:37 AM 46.4 °F 39.8 °F 44.6 °F 93% 29.72 in 10.0 mi East 16.1 mph 20.7 mph N/A   Overcast
11:57 AM 48.2 °F - 44.6 °F 87% 29.72 in 10.0 mi East 13.8 mph 18.4 mph N/A   Overcast
12:16 PM 48.2 °F - 44.6 °F 87% 29.72 in 10.0 mi East 13.8 mph - N/A   Mostly Cloudy
12:37 PM 50.0 °F - 44.6 °F 82% 29.72 in 10.0 mi East 17.3 mph - N/A   Mostly Cloudy
12:57 PM 51.8 °F - 46.4 °F 82% 29.71 in 10.0 mi East 13.8 mph - N/A   Mostly Cloudy
1:16 PM 53.6 °F - 46.4 °F 77% 29.70 in 10.0 mi ESE 13.8 mph - N/A   Mostly Cloudy
1:37 PM 53.6 °F - 46.4 °F 77% 29.71 in 10.0 mi East 12.7 mph 18.4 mph N/A   Overcast
1:56 PM 51.8 °F - 46.4 °F 82% 29.71 in 10.0 mi ESE 11.5 mph - N/A   Mostly Cloudy
2:17 PM 53.6 °F - 46.4 °F 77% 29.70 in 10.0 mi East 13.8 mph - N/A   Mostly Cloudy
2:37 PM 53.6 °F - 46.4 °F 77% 29.70 in 10.0 mi East 12.7 mph - N/A   Mostly Cloudy
2:56 PM 53.6 °F - 46.4 °F 77% 29.70 in 10.0 mi ESE 11.5 mph - N/A   Scattered Clouds
3:17 PM 53.6 °F - 46.4 °F 77% 29.70 in 10.0 mi ESE 11.5 mph - N/A   Scattered Clouds
3:36 PM 53.6 °F - 46.4 °F 77% 29.70 in 10.0 mi ENE 11.5 mph - N/A   Mostly Cloudy
3:57 PM 51.8 °F - 46.4 °F 82% 29.70 in 10.0 mi ENE 12.7 mph 18.4 mph N/A   Overcast
4:17 PM 51.8 °F - 44.6 °F 76% 29.70 in 10.0 mi NE 11.5 mph - N/A   Overcast
4:36 PM 51.8 °F - 44.6 °F 76% 29.70 in 10.0 mi ENE 10.4 mph - N/A   Overcast
4:57 PM 51.8 °F - 44.6 °F 76% 29.69 in 10.0 mi NE 10.4 mph - N/A   Overcast
5:17 PM 50.0 °F - 44.6 °F 82% 29.70 in 10.0 mi NE 9.2 mph - N/A   Overcast
5:36 PM 50.0 °F - 44.6 °F 82% 29.70 in 10.0 mi ENE 9.2 mph - N/A   Scattered Clouds
5:57 PM 50.0 °F - 44.6 °F 82% 29.71 in 10.0 mi East 11.5 mph - N/A   Mostly Cloudy
6:17 PM 50.0 °F - 44.6 °F 82% 29.71 in 10.0 mi ENE 10.4 mph - N/A   Overcast
6:37 PM 48.2 °F - 44.6 °F 87% 29.72 in 10.0 mi East 10.4 mph - N/A   Overcast
6:57 PM 48.2 °F - 44.6 °F 87% 29.71 in 10.0 mi ENE 10.4 mph - N/A   Overcast
7:16 PM 48.2 °F - 44.6 °F 87% 29.70 in 10.0 mi ENE 12.7 mph - N/A   Overcast
7:37 PM 46.4 °F 41.5 °F 42.8 °F 87% 29.71 in 10.0 mi ENE 10.4 mph - N/A   Overcast
7:56 PM 46.4 °F 41.1 °F 42.8 °F 87% 29.70 in 10.0 mi ENE 11.5 mph - N/A   Overcast
8:17 PM 46.4 °F 41.1 °F 42.8 °F 87% 29.72 in 10.0 mi ENE 11.5 mph - N/A   Overcast
8:37 PM 46.4 °F 41.1 °F 42.8 °F 87% 29.74 in 10.0 mi East 11.5 mph - N/A   Overcast
8:56 PM 44.6 °F 38.8 °F 42.8 °F 93% 29.73 in 10.0 mi East 11.5 mph - N/A   Overcast
9:17 PM 44.6 °F 40.2 °F 42.8 °F 93% 29.72 in 10.0 mi ENE 8.1 mph - N/A   Overcast
9:36 PM 44.6 °F 40.2 °F 42.8 °F 93% 29.72 in 10.0 mi NE 8.1 mph - N/A   Overcast
9:57 PM 44.6 °F 40.2 °F 41.0 °F 87% 29.74 in 10.0 mi ENE 8.1 mph - N/A   Overcast
10:17 PM 44.6 °F 40.2 °F 41.0 °F 87% 29.72 in 10.0 mi NE 8.1 mph - N/A   Overcast
10:36 PM 44.6 °F 40.7 °F 41.0 °F 87% 29.72 in 10.0 mi NNE 6.9 mph - N/A   Overcast
10:57 PM 44.6 °F 39.2 °F 41.0 °F 87% 29.71 in 10.0 mi NNE 10.4 mph - N/A   Overcast
11:16 PM 44.6 °F 40.7 °F 41.0 °F 87% 29.72 in 10.0 mi NE 6.9 mph - N/A   Overcast
11:37 PM 44.6 °F 39.7 °F 41.0 °F 87% 29.73 in 10.0 mi NNE 9.2 mph - N/A   Overcast
11:57 PM 44.6 °F 40.2 °F 41.0 °F 87% 29.74 in 10.0 mi NE 8.1 mph - N/A   Overcast